Regional Weather Roundup
Issued by NWS

Home | Current Version | Previous Version | Text Only | Print | Product List | Glossary Off
Versions: 1 2 3 4 5 6 7 8 9 10 11 12 13 14 15 16 17 18 19 20 21 22 23 24 25 26 27 28 29 30 31 32 33 34 35 36 37 38 39 40 41 42 43 44 45 46 47 48 49 50

000
ASUS43 KMPX 312310
RWRMN
WEATHER ROUNDUP FOR MINNESOTA
NATIONAL WEATHER SERVICE TWIN CITIES/CHANHASSEN MN
500 PM CST SAT JAN 31 2015


NOTE: "FAIR" INDICATES FEW OR NO CLOUDS BELOW 12,000 FEET WITH NO
SIGNIFICANT WEATHER AND/OR OBSTRUCTIONS TO VISIBILITY. N/A MEANS
CURRENT SKY AND/OR WEATHER CONDITIONS ARE NOT AVAILABLE.

MNZ060>063-068>070-010000-
   Twin Cities Metro

CITY           SKY/WX    TMP DP  RH WIND       PRES   REMARKS
TWIN CITIES    CLOUDY    27  17  66 NE8       30.19S WCI  19
ST PAUL        CLOUDY    28  17  63 NE8       30.21S WCI  20
CRYSTAL        CLOUDY    29  16  58 NE10      30.18S WCI  20
BLAINE         CLOUDY    28  18  64 NE8       30.19S WCI  20
LAKEVILLE      CLOUDY    25  19  80 NE8       30.17S WCI  16
EDEN PRAIRIE   CLOUDY    27  17  66 NE9       30.17S WCI  18
SOUTH ST PAUL  CLOUDY    28  18  66 NE6       30.19S WCI  22
LAKE ELMO      CLOUDY    28  19  69 NE5       30.19F WCI  23
$$
MNZ001>005-007-008-013>017-022>024-027-028-010000-
   Northwest Minnesota

CITY           SKY/WX    TMP DP  RH WIND       PRES   REMARKS
BEMIDJI        PTCLDY     4  -6  63 N7        30.31R WCI  -8
HALLOCK        PTCLDY    -6 -15  65 N15       30.49R WCI -27
ROSEAU         CLEAR      1  -9  60 N12       30.44R WCI -15
WARROAD        CLEAR      0 -11  60 NE8       30.44R WCI -15
THIEF RVR FALL MOCLDY     1  -9  60 N15G22    30.39S WCI -18
CROOKSTON      PTCLDY     3  -9  55 NE18      30.42S WCI -17
FOSSTON        PTCLDY     3  -4  72 N16       30.33S WCI -16
DETROIT LAKES  PTCLDY    16  -2  45 N9        30.27R WCI   4
MOORHEAD       CLOUDY     9  -2  61 N20       30.36R WCI -11
PARK RAPIDS    PTCLDY    13  -5  44 NE7       30.25R WCI   3
MAHNOMEN       FAIR       6  -4  63 N16G22    30.31R WCI -12
$$
MNZ006-009>011-018-025>026-010000-
   North Central Minnesota

CITY           SKY/WX    TMP DP  RH WIND       PRES   REMARKS
BAUDETTE       CLEAR     -2 -12  62 N10       30.39R WCI -19
FLAG ISLAND    CLEAR     -4 -15  59 N12       30.44R WCI -22
INTL FALLS     CLEAR      1 -11  57 N8        30.38R WCI -13
WASKISH        PTCLDY     1  -8  66 N8        30.38R WCI -12
BIG FORK       CLEAR      9  -8  47 N9        30.32R WCI  -5
LONGVILLE      PTCLDY    12   0  57 N7        30.27R WCI   2
GRAND RAPIDS   PTCLDY    12  -2  52 N8        30.26R WCI   1
CRANE LAKE     CLEAR      1  -9  60 NW3       30.38R
ORR            CLEAR      3  -9  55 CALM      30.31R
COOK           CLEAR      7  -6  56 CALM      30.31S
WALKER         FAIR       8  -2  63 N7        30.29R WCI  -4
$$
MNZ012-019>021-037-010000-
   Northeast Minnesota

CITY           SKY/WX    TMP DP  RH WIND       PRES   REMARKS
DULUTH         CLEAR     15  -2  46 N8        30.23R WCI   4
ELY            CLEAR      5  -6  61 N3        30.29S
HIBBING        CLEAR     11  -8  42 N10       30.28R WCI  -3
EVELETH        CLEAR     10  -4  52 NE8       30.29R WCI  -1
DULUTH HARBOR  CLEAR     21  10  63 E12       30.30R WCI   9
TWO HARBORS    CLEAR     18   1  49 N3        30.26R
SILVER BAY     CLEAR     14  -6  41 N6        30.28R WCI   5
GRAND MARAIS     N/A     11  -7  44 NE7       30.36R WCI   0
G MARAIS ARPRT CLEAR      1  -9  60 NW7       30.24R WCI -11
$$
MNZ029>031-032-039>041-046>048-054>057-064-010000-
   West Central Minnesota

CITY           SKY/WX    TMP DP  RH WIND       PRES   REMARKS
FERGUS FALLS   CLOUDY    16   0  48 N13       30.29R WCI   2
WHEATON        CLOUDY    16   3  57 N14G21    30.27S WCI   1
MORRIS         CLOUDY    25   7  46 NE15      30.20R WCI  12
ALEXANDRIA     CLOUDY    22   0  38 NE10      30.21R WCI  11
ELBOW LAKE     CLOUDY    20   3  47 N12       30.23R WCI   8
WADENA         PTCLDY    16  -4  41 NE10G16   30.24R WCI   3
GLENWOOD       CLOUDY    25   7  46 NE14      30.19R WCI  13
APPLETON       CLOUDY    28  12  50 NE15      30.19R WCI  17
BENSON         CLOUDY    27   3  36 E10       30.19R WCI  17
ORTONVILLE     CLOUDY    21  10  63 N16       30.19S WCI   7
MADISON        CLOUDY    28  21  74 NE8       30.17S WCI  20
WILLMAR        FAIR      28  18  64 NE10      30.18S WCI  19
$$
MNZ033>034-036-042>043-049>051-058-059-010000-
   Central Minnesota

CITY           SKY/WX    TMP DP  RH WIND       PRES   REMARKS
ST CLOUD       CLOUDY    25  10  53 N8        30.20R WCI  16
SAUK CENTRE    MOCLDY    23   7  49 NE10      30.20S WCI  13
PAYNESVILLE    CLOUDY    24  10  54 N12       30.18S WCI  13
AITKIN         PTCLDY    21   1  42 N9        30.23R WCI  11
PINE RIVER     PTCLDY    12   3  67 N9        30.28S WCI   0
BRAINERD       CLOUDY    19   4  51 N9        30.24R WCI   8
STAPLES        MOCLDY    16  -2  45 N8        30.24R WCI   5
LONG PRAIRIE   CLOUDY    23   5  46 N8        30.21R WCI  14
LITTLE FALLS   MOCLDY    25   5  42 NE3       30.23R
LITCHFIELD     CLOUDY    27  21  80 E6        30.18R WCI  20
BUFFALO        CLOUDY    28  17  63 NE5       30.19S WCI  23
MAPLE LAKE     CLOUDY    29  17  60 NE8       30.19S WCI  21
$$
MNZ037-044-045-052-053-010000-
   East Central Minnesota

CITY           SKY/WX    TMP DP  RH WIND       PRES   REMARKS
PRINCETON      CLOUDY    28   9  43 N13       30.21R WCI  18
MORA           PTCLDY    27   9  46 NE5       30.23S WCI  21
CAMBRIDGE      MOCLDY    28  12  50 N8        30.20R WCI  20
RUSH CITY      CLOUDY    26  10  49 NE7       30.22R WCI  19
MOOSE LAKE     CLEAR     21   1  42 N12       30.23R WCI   9
HINCKLEY       FAIR      25   7  46 NE6       30.23R WCI  18
CLOQUET        CLEAR     18  -4  38 N7        30.25R WCI   8
MCGREGOR       CLEAR     19   1  45 NE9       30.25R WCI   9
$$
MNZ071>073-080-081-089-090-097-098-010000-
   Southwest Minnesota

CITY           SKY/WX    TMP DP  RH WIND       PRES   REMARKS
MONTEVIDEO     CLOUDY    27  19  74 E5        30.18S WCI  21
GRANITE FALLS  CLOUDY    26  21  81 NE8       30.18S WCI  17
CANBY          CLOUDY    26  21  82 NE13      30.17R WCI  15
MARSHALL       CLOUDY    25  19  80 NE16      30.15S WCI  12
REDWOOD FALLS  CLOUDY    27  21  78 NE8G18    30.15S WCI  19
OLIVIA         CLOUDY    27  21  80 NE12      30.16S WCI  16
PIPESTONE      LGT SNOW  25  23  93 E9        30.06S WCI  15
WINDOM         LGT SNOW  27  27 100 NE10G17   30.09S WCI  17
WORTHINGTON    CLOUDY    27  23  86 NE16      30.07S WCI  14
JACKSON        LGT SNOW  28  27  93 NE14      30.07F WCI  17
TRACY          CLOUDY    26  25  96 NE12      30.12S FOG     WCI  16
SLAYTON        LGT SNOW  25  24  98 NE8       30.09S WCI  16
$$
MNZ065>067-074>077-082>085-091>093-010000-
   South Central Minnesota

CITY           SKY/WX    TMP DP  RH WIND       PRES   REMARKS
MANKATO        CLOUDY    28  21  74 NE10      30.13S WCI  19
NEW ULM        CLOUDY    27  21  80 NE14      30.14S WCI  15
FAIRMONT       CLOUDY    28  25  86 NE13      30.08S WCI  18
GLENCOE        CLOUDY    28  22  80 NE7       30.16R WCI  20
FARIBAULT      CLOUDY    28  21  74 NE12G17   30.15S WCI  18
OWATONNA       CLOUDY    28  25  86 NE12      30.13S WCI  18
WASECA         CLOUDY    30  27  86 NE12G17   30.13F WCI  21
ALBERT LEA     CLOUDY    30  27  86 E9        30.09F WCI  22
$$
MNZ078>079-086>088-094>096-010000-
   Southeast Minnesota

CITY           SKY/WX    TMP DP  RH WIND       PRES   REMARKS
ROCHESTER      CLOUDY    28  22  78 NE12      30.12S WCI  18
RED WING       CLOUDY    28  19  69 NE6       30.18S WCI  22
STANTON        CLOUDY    28  22  75 NE10G16   30.15S WCI  19
DODGE CENTER   CLOUDY    28  25  86 NE12      30.12S WCI  18
WINONA         CLOUDY    30  23  74 NE8       30.19R WCI  23
AUSTIN         CLOUDY    28  25  86 NE10      30.11S WCI  19
PRESTON        CLOUDY    28  24  85 NE7       30.12S WCI  21
$$
ABBREVIATIONS USED IN REMARKS
   TC - TEMPERATURES IN CELSIUS
  WCI - WIND CHILL INDEX
   HX - HEAT INDEX
  VSB - VISIBILITY
$$



USA.gov is the U.S. government's official web portal to all federal, state and local government web resources and services.